Погода в Большом Самовце

Россия / Липецкая область     52°31′52″N   39°56′31″E
темп.,
°C
ветер,
м/с
пор.,
м/с
влажн.,
%
обл.,
%
осадки,
мм/ч
давл.,
гПа
погр.,
м
19 апреля, пн
пн1900:00+8вюв227573 0.0 101827
03:00+7вюв227850 0.0 101811
06:00+7вюв0080100 0.4 101810
09:00+10сз226796 0.5 1017361
12:00+13ссз225311 0.3 10161276
15:00+14ссз114916 1.3 10161431
18:00+13всв546135 0.9 1015894
21:00+9в6118277 1.0 1017555
20 апреля, вт
вт2000:00+8в5118839 0.0 1017503
03:00+7в598690 0.0 1016491
06:00+7в6989100 0.1 1017533
09:00+7в6987100 0.1 1016617
12:00+8в7983100 0.1 1014749
15:00+8в81386100 0.2 1012699
18:00+5всв101892100 5.3 1007747
21:00+7вюв101992100 11.8 10031136
21 апреля, ср
ср2100:00+10юв9169031 1.8 1000633
03:00+9ююв8158460 2.1 1000619
06:00+9ююв81491100 0.4 1001859
09:00+5юз71288100 1.4 1005744
12:00+6юз81281100 0.0 10091050
15:00+8юз61178100 0.0 10121260
18:00+8юз4874100 0.0 1014474
21:00+8ююз347838 0.1 101689
22 апреля, чт
чт2200:00+6ю368999 0.9 1017172
03:00+6ююв339417 1.4 101764
06:00+5юз369321 0.3 1018151
09:00+9юз466621 0.3 1019582
12:00+13юз675750 0.2 10191591
15:00+13юз4759100 1.1 10191109
18:00+12ююв356991 0.3 1020133
21:00+11ююв377492 0.3 1020134
23 апреля, пт
пт2300:00+10ю388396 0.9 1021183
03:00+9ю368371 0.9 1021105
06:00+8ю368592 0.0 1021104
09:00+13ю566890 0.0 1021470
12:00+17ю674586 0.1 10202386
15:00+16ююз3652100 0.1 1019643
18:00+15ю59585 0.0 1018474
21:00+11ююв477220 0.0 1018105